This is the latest recevied weather packets stored in our database for station/object WE0DX-1. If no packets are shown the sender has not sent any weather packets the latest 10 day(s).
| Time | Temp. | Humidity | Pressure | Rain* | Wind** | Luminosity | Snow |
|---|---|---|---|---|---|---|---|
| 1777680593 | 16.11° C | 37% | 1015.5 hPa | 0 mm | - | 23 W/m² | - |
| 1777680291 | 16.11° C | 36% | 1015.7 hPa | 0 mm | - | 19 W/m² | - |
| 1777679987 | 16.11° C | 36% | 1015.6 hPa | 0 mm | - | 21 W/m² | - |
| 1777679682 | 16.11° C | 36% | 1015.5 hPa | 0 mm | - | 23 W/m² | - |
| 1777679378 | 16.67° C | 36% | 1015.5 hPa | 0 mm | - | 24 W/m² | - |
| 1777679075 | 16.67° C | 36% | 1015.3 hPa | 0 mm | - | 23 W/m² | - |
| 1777678774 | 16.67° C | 36% | 1015.4 hPa | 0 mm | - | 32 W/m² | - |
| 1777678471 | 16.67° C | 35% | 1015.3 hPa | 0 mm | - | 26 W/m² | - |
| 1777678166 | 16.67° C | 34% | 1015.6 hPa | 0 mm | - | 27 W/m² | - |
| 1777677864 | 16.67° C | 34% | 1015.6 hPa | 0 mm | - | 29 W/m² | - |
| 1777677561 | 16.67° C | 34% | 1015.4 hPa | 0 mm | - | 63 W/m² | - |
| 1777677260 | 16.67° C | 34% | 1015.5 hPa | 0 mm | - | 47 W/m² | - |
| 1777676957 | 16.67° C | 34% | 1015.6 hPa | 0 mm | - | 30 W/m² | - |
| 1777676656 | 16.67° C | 33% | 1015.6 hPa | 0 mm | - | 77 W/m² | - |
| 1777676353 | 17.22° C | 34% | 1015.4 hPa | 0 mm | - | 32 W/m² | - |
| 1777676050 | 16.67° C | 34% | 1015.2 hPa | 0 mm | - | 34 W/m² | - |
| 1777675746 | 17.22° C | 35% | 1015.4 hPa | 0 mm | - | 36 W/m² | - |
| 1777675444 | 16.67° C | 34% | 1015.5 hPa | 0 mm | - | 43 W/m² | - |
| 1777675140 | 17.22° C | 33% | 1015.3 hPa | 0 mm | - | 63 W/m² | - |
| 1777674836 | 17.22° C | 31% | 1015.3 hPa | 0 mm | - | 69 W/m² | - |
| 1777674533 | 17.22° C | 34% | 1015.4 hPa | 0 mm | - | 64 W/m² | - |
| 1777674231 | 17.78° C | 33% | 1015.4 hPa | 0 mm | - | 60 W/m² | - |
| 1777673927 | 17.22° C | 32% | 1015.5 hPa | 0 mm | - | 50 W/m² | - |
| 1777673623 | 17.22° C | 32% | 1015.3 hPa | 0 mm | - | 55 W/m² | - |
| 1777673322 | 17.22° C | 31% | 1015.4 hPa | 0 mm | - | 65 W/m² | - |
* Rain latest hour (hover to see other rain measurements)
** Current wind speed in m/s (hover to see current wind gust speed)